Home   Weather   Wertheim   Past weeks

Flag for Germany Past Weather in Wertheim, Baden-Württemberg, Germany — Yesterday and Last 2 Weeks

Now
39 °F

Overcast.


Feels Like: 31 °F
Forecast: 31 / 40 °F
Wind: 14 mph from South

Location: Niederstetten

Current Time: Dec 12, 2017 at 1:50:43 am

Latest Report: Dec 12, 2017 at 12:20 am


Visibility: N/A

Pressure: 29.21 "Hg

Humidity: 87%

Dew Point: 36 °F

Location of WertheimLocation

Past Weather in Wertheim — Graph

°F

Wertheim Temperature Yesterday

Maximum temperature yesterday: 41 °F (at 12:20 am)
Minimum temperature yesterday: 37 °F (at 8:20 am)
Average temperature yesterday: 40 °F

High & Low Weather Summary for the Past Weeks

 TemperatureHumidityPressure
High43 °F (Dec 7, 1:20 pm)100% (Nov 29, 4:20 am)30.54 "Hg (Nov 29, 4:20 am)
Low23 °F (Dec 2, 1:20 am)57% (Dec 7, 1:20 pm)28.97 "Hg (Dec 11, 1:20 pm)
Average32 °F91%29.92 "Hg
* Reported Nov 27 12:20 am — Dec 12 12:20 am, Wertheim. Weather by CustomWeather, © 2017

Note: Actual official high and low records may vary slightly from our data, if they occured in-between our weather recording intervals... More about our weather records

Advertising

Wertheim Weather History for the Previous 24 Hours

Scroll right to see more
 ConditionsComfort  
Time TempWeatherWind HumidityBarometerVisibility
12:20 am
Tue, Dec 12
39 °FOvercast.14 mph87%29.21 "HgN/A
11:20 pm
Mon, Dec 11
39 °FOvercast.13 mph93%29.18 "HgN/A
10:20 pm41 °FMostly cloudy.13 mph87%29.15 "HgN/A
9:20 pm41 °FMostly cloudy.12 mph87%29.15 "HgN/A
8:20 pm41 °FLight rain. Mostly cloudy.12 mph93%29.12 "HgN/A
7:20 pm41 °FPassing clouds.8 mph93%29.09 "HgN/A
6:20 pm41 °FPassing clouds.7 mph93%29.09 "HgN/A
5:20 pm41 °FPassing clouds.6 mph93%29.06 "HgN/A
5:00 pm41 °FLight rain. Mostly cloudy.8 mph93%29.06 "HgN/A
4:20 pm39 °FLight rain. Mostly cloudy.8 mph93%29.06 "HgN/A
3:20 pm39 °FOvercast.5 mph93%29.00 "HgN/A
2:20 pm39 °FLight rain. Overcast.8 mph93%28.97 "HgN/A
1:20 pm39 °FLight rain. Overcast.14 mph93%28.97 "HgN/A
12:20 pm39 °FLight rain. Overcast.13 mph93%29.00 "HgN/A
11:20 am39 °FLight rain. Overcast.12 mph93%29.03 "HgN/A
10:20 am39 °FLight rain. More clouds than sun.16 mph93%29.06 "Hg6 mi
9:20 am37 °FRain. More clouds than sun.12 mph100%29.06 "Hg4 mi
8:20 am37 °FRain. Overcast.10 mph93%29.06 "Hg5 mi
7:20 am39 °FLight rain. Passing clouds.8 mph93%29.09 "HgN/A
6:20 am39 °FLight rain. Passing clouds.7 mph93%29.09 "HgN/A
5:20 am39 °FMostly cloudy.8 mph93%29.12 "HgN/A
4:20 am39 °FOvercast.8 mph87%29.12 "HgN/A
3:20 am39 °FMostly cloudy.7 mph87%29.12 "HgN/A
2:20 am39 °FMostly cloudy.14 mph87%29.12 "HgN/A
1:20 am41 °FPartly cloudy.16 mph81%29.12 "HgN/A
Weather by CustomWeather, © 2017

See weather overview